User: anonymous   Login
Location: Donald C. Martin Observatory
(38.3885°N, 82.3916°W)
Time: 03:50:49
(UTC-04:00)
Language:

Cosmos 1484 Rocket - Orbit

View from above orbital plane
View from above orbital plane
View from above satellite
View from above satellite

Ground track
Ground track

The orbit data is extracted from the following two-line orbital elements,

1 14208U 83075B   15091.83095585  .00004617  00000-0  29350-3 0  9997
2 14208 097.3920 123.2130 0041998 034.7438 325.6520 15.08568083725695
Epoch (UTC): 01 April 2015 19:56:34
Eccentricity: 0.0041998
inclination: 97.3920°
perigee height: 511 km
apogee height: 569 km
right ascension of ascending node: 123.2130°
argument of perigee: 34.7438°
revolutions per day: 15.08568083
mean anomaly at epoch: 325.6520°
orbit number at epoch: 72569

The dashed part of the orbit path shows where the satellite is in the earth's shadow,  

DLR